Find Starlink 3252

NORAD ID: 49733 Int'l Des: 2021-115 Owner: SPXS Country: US Constellation: starlink operational
LEOCIRCULAR

リアルタイム位置

3D地球を読み込み中...

Starlink 3252について

説明を読み込み中...

次回通過

Passes for default location (London). Set your location on the main map for personalized predictions.

高度履歴

Loading altitude history...

軌道要素

1 49733U 21115K 26125.41619047 .00001361 00000-0 10357-3 0 9994
2 49733 53.2181 264.4645 0001210 86.0479 274.0652 15.08835704243957
Epoch: May 5, 2026 • Age: 26 hours

現在のステータス

高度 544.8 km
速度 7.60 km/s
衛星直下点 49.90°N, 25.24°W
打ち上げ日 Dec 2, 2021
運用期間 4.4 years
タイプ internet

技術仕様

分類 Payload
質量 290.00 kg
乾燥質量 270.00 kg
総質量 290.00 kg
長さ 0.20 m
直径 2.80 m
スパン 9.00 m
形状 Box + pan
製造者 SPXS
バスタイプ Starlink
フェーズステータス In Orbit
所有者/国 SPXS/US

Most Searched